Tracking 25656 objects as of 21-May-2022
HD Live streaming from Space Station
objects crossing your sky now

FLOCK 4V 14

Track FLOCK 4V 14 now!
10-day predictions
FLOCK 4V 14 is classified as:


NORAD ID: 46286
Int'l Code: 2020-061Q
Perigee: 529.9 km
Apogee: 534.1 km
Inclination: 97.4 °
Period: 95.1 minutes
Semi major axis: 6902 km
RCS: Unknown
Launch date: September 3, 2020
Source: United States (US)
Launch site: FRENCH GUIANA (FRGUI)
aabbcc
Your satellite tracking list
Your tracking list is empty




NASA's NSSDC Master Catalog

Two Line Element Set (TLE):
1 46286U 20061Q   22141.46532726  .00020077  00000-0  11156-2 0  9992
2 46286  97.4481 212.2639 0003022  17.9683 342.1654 15.13731376 94417
Source of the keplerian elements: AFSPC